Location: Eboldshausen
(51.7766°N, 10.0050°E)
Time: 06:30:29
(UTC+00:00)

Cosmos 1190 Rocket - Pass Details

Date: 15 November 2025
Orbit: 752 x 775 km, 74.1° (Epoch: 12 December)

Event Time Altitude Azimuth Distance (km) Brightness Sun altitude
Rises 18:07:57 0° 199° (SSW) 3,241 7.5 -24.3°
Reaches altitude 10° 18:10:19 10° 198° (SSW) 2,319 6.7 -24.7°
Maximum altitude 18:15:35 80° 112° (ESE) 794 3.8 -25.5°
Enters shadow 18:15:49 78° 76° (ENE) 800 3.8 -25.5°
